"2009-09-23 00:00:00",1264608,8.79,48.2,7.707,1.197,9.56,103.0534,7.094,8.36,51.69,0,110,13.44,7.87,10.2
"2009-09-23 00:00:30",1264609,8.31,41.59,8.57,1.992,10.23,103.0394,7.058,8.31,51.76,0,110,13.44,7.84,3.6
"2009-09-23 00:01:00",1264610,12.57,54.45,8.24,2.608,11.89,103.0204,7.01,8.36,51.15,0,110,13.44,7.79,16.5
"2009-09-23 00:01:30",1264611,10.4,57.56,6.314,0.528,12.81,103.0128,6.99,8.35,52.15,0,110,13.44,7.77,19.6
"2009-09-23 00:02:00",1264612,11.41,68.34,5.736,1.142,12.49,102.9871,6.925,8.36,52.06,0,110,13.44,7.70,30.3
"2009-09-23 00:02:30",1264613,12.02,62.98,8.11,0.862,12.47,102.9809,6.909,8.29,51.84,0,109.9,13.44,7.68,25.0
"2009-09-23 00:03:00",1264614,11.07,53,6.903,2.238,9.79,102.9544,6.841,8.13,52.42,0,110,13.44,7.62,15.0
"2009-09-23 00:03:30",1264615,15.07,64.11,9.47,1.566,10.85,102.949,6.827,8.13,52.59,0,110,13.45,7.60,26.1
"2009-09-23 00:04:00",1264616,15.79,68.09,7.39,1.046,11.61,102.9309,6.781,8.18,52.37,0,110,13.45,7.56,30.1
"2009-09-23 00:04:30",1264617,16.05,68.43,4.972,1.451,12.87,102.9162,6.744,8.13,52.18,0,110,13.45,7.52,30.4
"2009-09-23 00:05:00",1264618,13.95,68.86,8.71,0.939,12.38,102.9128,6.735,8.1,52.19,0,110,13.45,7.51,30.9
"2009-09-23 00:05:30",1264619,13.85,54.82,3.433,1.17,12.34,102.8919,6.681,8.08,53.37,0,110,13.45,7.46,16.8
"2009-09-23 00:06:00",1264620,13.58,53.78,4.885,0.987,12.53,102.8823,6.657,8.06,53.64,0,110,13.45,7.43,15.8
"2009-09-23 00:06:30",1264621,13.51,47.93,4.775,1.582,12.07,102.8823,6.657,8.01,53.96,0,110,13.45,7.43,9.9
"2009-09-23 00:07:00",1264622,13.7,52.09,5.011,1.153,12.12,102.8707,6.627,8.01,54.65,0,110,13.45,7.40,14.1
"2009-09-23 00:07:30",1264623,15.16,61.75,3.739,0.896,12.17,102.849,6.572,7.957,54.47,0,109.9,13.45,7.35,23.8
"2009-09-23 00:08:00",1264624,15.39,60.96,5.498,2.4,12.41,102.8484,6.57,7.943,54.3,0,110,13.45,7.35,23.0
"2009-09-23 00:08:30",1264625,13.56,55.25,5.687,0.805,12.26,102.8462,6.564,7.915,54.34,0,110,13.45,7.34,17.2
"2009-09-23 00:09:00",1264626,13.05,46.33,5.507,1.349,12.26,102.832,6.528,7.884,54.68,0,110,13.45,7.30,8.3
"2009-09-23 00:09:30",1264627,11.59,47.91,5.6,1.365,12.2,102.8162,6.488,7.861,55,0,110,13.45,7.26,9.9
"2009-09-23 00:10:00",1264628,10.42,61.17,8.96,0.866,11.99,102.8145,6.484,7.859,55.5,0,109.9,13.45,7.26,23.2
"2009-09-23 00:10:30",1264629,11.53,60.05,4.661,1.567,11.9,102.8145,6.484,7.82,55.54,0,109.9,13.45,7.26,22.0
"2009-09-23 00:11:00",1264630,12.1,59.28,7.18,0.99,12.08,102.8046,6.458,7.794,55.56,0,109.9,13.45,7.23,21.3
"2009-09-23 00:11:30",1264631,10.03,70.6,7.131,1.659,12.05,102.7834,6.404,7.801,55.75,0,109.9,13.45,7.18,32.6
"2009-09-23 00:12:00",1264632,10.89,62.73,7.779,0.966,12.03,102.7806,6.397,7.764,55.9,0,109.9,13.46,7.17,24.7
"2009-09-23 00:12:30",1264633,11.03,67.56,6.123,0.633,12,102.7713,6.373,7.747,55.03,0,109.9,13.46,7.15,29.6
"2009-09-23 00:13:00",1264634,9.97,79.89,8.3,0.949,11.93,102.7481,6.314,7.702,54.88,0,109.9,13.46,7.09,41.9
"2009-09-23 00:13:30",1264635,10.03,77.33,11.2,1.207,11.66,102.7467,6.31,7.687,54.81,0,109.9,13.46,7.08,39.3
"2009-09-23 00:14:00",1264636,11.87,71.81,12.44,1.436,11.61,102.7467,6.31,7.655,54.77,0,109.9,13.46,7.08,33.8
"2009-09-23 00:14:30",1264637,10.21,81,10.74,2.034,8.79,102.7461,6.309,7.483,54.57,0,109.9,13.46,7.08,43.0
"2009-09-23 00:15:00",1264638,10.36,47.39,9.75,1.464,8.33,102.7453,6.307,7.428,54.62,0,109.9,13.46,7.08,9.4
"2009-09-23 00:15:30",1264639,10.19,46.55,7.456,1.905,10.96,102.7464,6.31,7.5,54.8,0,109.9,13.46,7.08,8.5
"2009-09-23 00:15:30",1264640,10.63,48.63,4.843,0.951,13.09,102.7467,6.31,7.626,55.83,0,109.9,13.46,7.08,10.6
"2009-09-23 00:16:00",1264641,9.45,41.51,5.433,0.997,12.76,102.7473,6.312,7.626,56.07,0,109.9,13.46,7.09,3.5
"2009-09-23 00:16:30",1264642,8.58,46.51,5.713,1.306,12.1,102.7478,6.313,7.627,55.83,0,109.9,13.46,7.09,8.5
"2009-09-23 00:17:00",1264643,9.26,41.54,5.58,1.708,11.83,102.749,6.316,7.625,55.86,0,109.9,13.46,7.09,3.5
"2009-09-23 00:17:30",1264644,10.27,45.3,12.05,1.589,9.74,102.7493,6.317,7.528,55.92,0,109.9,13.46,7.09,7.3
"2009-09-23 00:18:00",1264645,7.39,34.5,14.01,1.1,8.9,102.7493,6.317,7.558,56.13,0,109.9,13.46,7.09,356.5
"2009-09-23 00:18:30",1264646,8.6,41.05,7.901,1.334,9.34,102.7519,6.324,7.515,56.5,0,109.9,13.46,7.10,3.0
"2009-09-23 00:19:00",1264647,9.57,58.59,8.01,1.029,10.34,102.7483,6.314,7.553,56.9,0,109.9,13.46,7.09,20.6
"2009-09-23 00:19:30",1264648,7.867,45.99,13.41,1.268,11.93,102.7387,6.29,7.57,56.41,0,109.9,13.46,7.06,8.0
"2009-09-23 00:20:00",1264649,7.229,45.14,8.76,1.429,10.88,102.7317,6.272,7.571,56.12,0,109.9,13.46,7.05,7.1
"2009-09-23 00:20:30",1264650,6.558,43.16,8.1,1.874,10,102.7232,6.25,7.41,56.1,0,109.9,13.46,7.02,5.2
"2009-09-23 00:21:00",1264651,2.955,62.66,13.15,0.68,7.258,102.7226,6.249,7.304,56.07,0,109.9,13.5,7.02,24.7
"2009-09-23 00:21:30",1264652,6.975,60.06,6.975,3.174,9.52,102.7261,6.258,7.444,56.37,0,109.9,13.46,7.03,22.1
"2009-09-23 00:22:00",1264653,10.39,60.45,7.345,1.592,10.99,102.7285,6.264,7.466,55.87,0,109.9,13.46,7.04,22.5
"2009-09-23 00:22:30",1264654,11.12,52.25,5.756,1.496,12.39,102.729,6.265,7.58,55.91,0,109.9,13.46,7.04,14.2
"2009-09-23 00:23:00",1264655,11.85,64,9.94,1.048,12.61,102.7328,6.275,7.576,56.18,0,109.9,13.46,7.05,26.0
"2009-09-23 00:23:30",1264656,8.44,82.8,4.838,1.182,12.5,102.7348,6.28,7.568,55.83,0,109.9,13.46,7.05,44.8
"2009-09-23 00:24:00",1264657,6.124,78.91,10.24,1.223,11.01,102.749,6.316,7.515,56.13,0,109.9,13.46,7.09,40.9
"2009-09-23 00:24:30",1264658,4.996,52.99,7.666,0.279,6.751,102.7567,6.336,7.297,56.7,0,109.9,13.49,7.11,15.0
"2009-09-23 00:25:00",1264659,4.542,45.55,5.439,0.253,6.93,102.7592,6.342,7.36,56.9,0,109.9,13.5,7.12,7.5
"2009-09-23 00:25:30",1264660,7.321,55.89,8.55,1.361,9.21,102.7601,6.345,7.367,56.92,0,109.9,13.46,7.12,17.9
"2009-09-23 00:26:00",1264661,9.07,60.82,5.804,0.82,12.28,102.7582,6.34,7.618,56.97,0,109.9,13.46,7.11,22.8
"2009-09-23 00:26:30",1264662,8.25,58.07,6.165,0.697,12.51,102.7573,6.337,7.608,56.97,0,109.9,13.47,7.11,20.1
"2009-09-23 00:27:00",1264663,8.43,56.17,5.525,1.098,11.81,102.7553,6.332,7.629,57.13,0,109.9,13.47,7.11,18.2
"2009-09-23 00:27:30",1264664,5.738,47.67,11.02,1.546,8.99,102.7481,6.314,7.377,57.08,0,109.9,13.47,7.09,9.7
"2009-09-23 00:28:00",1264665,5.313,45.77,6.439,1.029,7.329,102.7467,6.31,7.291,57.27,0,109.9,13.47,7.08,7.8
"2009-09-23 00:28:30",1264666,4.05,59.71,8.15,0.985,8.87,102.7444,6.305,7.434,57.42,0,109.9,13.47,7.08,21.7
"2009-09-23 00:29:00",1264667,3.894,70.26,7.967,0.284,7.005,102.7456,6.308,7.302,57.62,0,109.9,13.51,7.08,32.3
"2009-09-23 00:29:30",1264668,4.336,93.2,4.993,1.353,9.92,102.7444,6.305,7.541,58.39,0,109.9,13.47,7.08,55.2
"2009-09-23 00:30:00",1264669,6.027,81.2,7.749,0.919,11.44,102.7433,6.302,7.591,58.14,0,109.9,13.47,7.08,43.2
"2009-09-23 00:30:30",1264670,5.033,74.32,7.187,1.142,10.56,102.7441,6.304,7.514,57.98,0,109.9,13.47,7.08,36.3
"2009-09-23 00:31:00",1264671,2.525,59.22,7.509,0.185,6.474,102.745,6.306,7.28,57.61,0,109.9,13.48,7.08,21.2
"2009-09-23 00:31:30",1264672,2.926,60.66,18.27,1.004,8.01,102.7462,6.309,7.424,57.91,0,109.9,13.47,7.08,22.7
"2009-09-23 00:32:00",1264673,1.532,69.4,8.35,0.493,6.318,102.7462,6.309,7.365,57.98,0,109.9,13.51,7.08,31.4
"2009-09-23 00:32:30",1264674,2.444,69.47,7.895,0.205,6.205,102.7467,6.311,7.285,57.99,0,109.9,13.51,7.08,31.5
"2009-09-23 00:33:00",1264675,2.265,77.45,6.746,0.804,7.502,102.7462,6.309,7.443,58.41,0,109.9,13.48,7.08,39.4
"2009-09-23 00:33:30",1264676,3.039,81.1,13.27,0.766,11.36,102.745,6.306,7.576,58.87,0,109.9,13.48,7.08,43.1
"2009-09-23 00:34:00",1264677,1.847,293.3,46.35,1.243,9.43,102.7394,6.292,7.488,58.86,0,109.9,13.48,7.07,255.3
"2009-09-23 00:34:30",1264678,0.228,275.6,71.94,0.23,5.689,102.7157,6.231,7.268,59.25,0,109.9,13.51,7.01,237.6
"2009-09-23 00:35:00",1264679,0.8,252.5,41.71,0.738,5.145,102.7131,6.225,7.243,59.91,0,109.9,13.51,7.00,214.5
"2009-09-23 00:35:30",1264680,1.885,216.5,23.03,1.265,7.188,102.7066,6.208,7.346,60.27,0,109.9,13.48,6.98,178.5
"2009-09-23 00:36:00",1264681,2.118,214.3,21.51,1.066,6.637,102.6961,6.181,7.343,60.55,0,109.9,13.48,6.95,176.3
"2009-09-23 00:36:30",1264682,1.872,161.9,6.988,0.272,5.394,102.6942,6.176,7.172,60.76,0,109.9,13.52,6.95,123.9
"2009-09-23 00:37:00",1264683,3.137,154.6,7.835,1.13,7.67,102.6811,6.143,7.387,61.34,0,109.9,13.48,6.92,116.6
"2009-09-23 00:37:30",1264684,5.005,147.6,7.032,0.737,10.87,102.6752,6.128,7.431,61.56,0,109.9,13.48,6.90,109.6
"2009-09-23 00:38:00",1264685,4.337,140.5,6.287,1.108,10.4,102.652,6.069,7.43,61.68,0,109.9,13.48,6.84,102.5
"2009-09-23 00:38:30",1264686,3.809,136.5,6.332,1.203,8.2,102.6453,6.051,7.202,61.58,0,109.9,13.48,6.82,98.5
"2009-09-23 00:39:00",1264687,2.629,130,5.955,1.4,7.414,102.6453,6.051,7.2,61.63,0,109.9,13.48,6.82,92.0
"2009-09-23 00:39:30",1264688,2.703,118.5,7.594,1.127,6.182,102.6439,6.048,7.062,61.47,0,109.9,13.47,6.82,80.5
"2009-09-23 00:40:00",1264689,2.175,122.2,5.558,0.475,6.277,102.6362,6.028,7.02,61.39,0,109.9,13.48,6.80,84.2
"2009-09-23 00:40:30",1264690,3.099,116.7,14.57,1.263,8.97,102.6244,5.998,7.149,61.46,0,109.9,13.48,6.77,78.7
"2009-09-23 00:41:00",1264691,4.108,117.4,12.87,0.973,11.16,102.617,5.979,7.283,61.54,0,109.9,13.48,6.75,79.4
"2009-09-23 00:41:30",1264692,4.399,103.1,9.82,1.511,10.04,102.6105,5.962,7.226,61.38,0,109.9,13.48,6.74,65.1
"2009-09-23 00:42:00",1264693,4.424,113.3,14.78,1.335,8.67,102.6111,5.964,7.255,61.33,0,109.9,13.48,6.74,75.3
"2009-09-23 00:42:30",1264694,3.745,115.7,13.25,1.038,6.636,102.6015,5.939,7.082,61.08,0,109.9,13.48,6.71,77.7
"2009-09-23 00:43:00",1264695,3.96,98.4,8.34,1.075,7.793,102.5808,5.887,7.002,60.83,0,109.9,13.48,6.66,60.4
"2009-09-23 00:43:30",1264696,3.753,87.1,4.519,0.893,7.334,102.578,5.879,7.114,60.82,0,109.9,13.49,6.65,49.1
"2009-09-23 00:44:00",1264697,4.746,93.7,6.805,1.192,9.63,102.578,5.879,7.108,60.84,0,109.9,13.49,6.65,55.7
"2009-09-23 00:44:30",1264698,3.982,86.2,11.88,1.187,10.21,102.5709,5.861,7.153,60.84,0,109.9,13.49,6.63,48.2
"2009-09-23 00:45:00",1264699,4.782,90.7,8.98,1.378,9.57,102.5633,5.842,7.105,60.63,0,109.9,13.49,6.61,52.7
"2009-09-23 00:45:30",1264700,3.788,78.96,11.61,0.852,6.953,102.5464,5.799,6.908,60.17,0,109.9,13.49,6.57,41.0
"2009-09-23 00:46:00",1264701,5.464,91.6,6.749,1.262,8.11,102.5441,5.793,6.99,60.3,0,109.9,13.49,6.57,53.6
"2009-09-23 00:46:30",1264702,5.33,97.3,9.02,1,7.457,102.5441,5.793,7.038,61.34,0,109.9,13.49,6.57,59.3
"2009-09-23 00:47:00",1264703,6.51,115.1,5.542,1.21,8.96,102.5441,5.793,6.986,62.11,0,109.9,13.49,6.57,77.1
"2009-09-23 00:47:30",1264704,7.935,120.4,6.238,0.448,11.29,102.5342,5.767,7.144,62.72,0,109.9,13.49,6.54,82.4
"2009-09-23 00:48:00",1264705,6.987,118.3,6.254,1.348,9.69,102.5243,5.742,7.119,62.63,0,109.8,13.49,6.51,80.3
"2009-09-23 00:48:30",1264706,6.736,118.9,6.545,1.071,8.45,102.5107,5.708,7.017,62.71,0,109.8,13.49,6.48,80.9
"2009-09-23 00:49:00",1264707,6.747,120.3,6.832,1.382,6.955,102.5102,5.706,6.845,63.37,0,109.8,13.49,6.48,82.3
"2009-09-23 00:49:30",1264708,7.056,121.9,6.738,1.251,9.16,102.4991,5.678,6.95,63.76,0,109.9,13.49,6.45,83.9
"2009-09-23 00:50:00",1264709,6.741,117.3,9.29,1.409,8.46,102.4813,5.632,6.921,63.55,0,109.9,13.49,6.40,79.3
"2009-09-23 00:50:30",1264710,7.965,125.1,4.813,0.737,11.25,102.4762,5.619,7.051,63.71,0,109.9,13.49,6.39,87.1
"2009-09-23 00:51:00",1264711,7.553,124.5,4.626,0.999,10.43,102.4683,5.599,6.977,63.46,0,109.9,13.49,6.37,86.5
"2009-09-23 00:51:30",1264712,7.283,115,6.075,1.354,8.29,102.4454,5.541,6.834,63.21,0,109.8,13.49,6.31,77.0
"2009-09-23 00:52:00",1264713,7.223,111.4,4.005,1.448,7.783,102.4423,5.533,6.795,63.2,0,109.8,13.49,6.30,73.4
"2009-09-23 00:52:30",1264714,7.74,102.9,7.414,1.375,8.15,102.4392,5.525,6.695,63.06,0,109.8,13.49,6.30,64.9
"2009-09-23 00:53:00",1264715,8.07,108.2,6.375,1.169,9.7,102.4262,5.492,6.839,63.3,0,109.8,13.49,6.26,70.2
"2009-09-23 00:53:30",1264716,8.39,113.5,5.353,1.009,10.14,102.4129,5.458,6.869,63.44,0,109.8,13.49,6.23,75.5
"2009-09-23 00:54:00",1264717,7.833,118.8,5.146,1.043,10.25,102.4084,5.446,6.882,63.67,0,109.8,13.49,6.22,80.8
"2009-09-23 00:54:30",1264718,7.315,124.2,4.759,1.148,9.94,102.3991,5.422,6.857,63.96,0,109.8,13.48,6.19,86.2
"2009-09-23 00:55:00",1264719,5.629,123.4,6.768,1.301,7.764,102.3784,5.37,6.61,63.94,0,109.8,13.48,6.14,85.4
"2009-09-23 00:55:30",1264720,4.088,120,3.549,0.17,5.436,102.3745,5.36,6.507,63.98,0,109.8,13.51,6.13,82.0
"2009-09-23 00:56:00",1264721,5.408,115.9,8.19,1.352,7.538,102.3722,5.354,6.545,64.27,0,109.8,13.48,6.12,77.9
"2009-09-23 00:56:30",1264722,5.919,118.8,6.635,1.195,9.48,102.353,5.305,6.713,64.7,0,109.8,13.48,6.08,80.8
"2009-09-23 00:57:00",1264723,6.034,125.3,5.225,0.735,10.74,102.3406,5.273,6.743,64.84,0,109.8,13.48,6.04,87.3
"2009-09-23 00:57:30",1264724,5.396,123.5,7.725,1.174,9.19,102.3403,5.272,6.692,64.86,0,109.8,13.48,6.04,85.5
"2009-09-23 00:58:00",1264725,5.31,125,8.36,1.114,8.82,102.3239,5.23,6.592,65.14,0,109.8,13.48,6.00,87.0
"2009-09-23 00:58:30",1264726,3.455,124.1,7.054,0.978,5.889,102.3069,5.187,6.357,65.35,0,109.8,13.48,5.96,86.1
"2009-09-23 00:59:00",1264727,3.963,120.9,7.93,1.128,7.638,102.3066,5.186,6.563,65.66,0,109.8,13.49,5.96,82.9
"2009-09-23 00:59:30",1264728,4.425,134.9,6.029,1.071,9.7,102.3033,5.178,6.519,65.52,0,109.8,13.49,5.95,96.9
"2009-09-23 01:00:00",1264729,4.065,133.7,6.267,1.207,9.66,102.2863,5.134,6.536,65.31,0,109.8,13.49,5.90,95.7
"2009-09-23 01:00:30",1264730,4.276,130,7.13,1.077,9.55,102.2733,5.101,6.471,65.25,0,109.8,13.49,5.87,92.0
"2009-09-23 01:01:00",1264731,3.466,125.1,6.367,1,6.896,102.2727,5.1,6.358,65.32,0,109.8,13.49,5.87,87.1
"2009-09-23 01:01:30",1264732,2.496,124.6,4.397,0.305,5.797,102.2705,5.094,6.22,65.4,0,109.8,13.52,5.86,86.6
"2009-09-23 01:02:00",1264733,3.251,125.7,6.223,1.248,7.044,102.2594,5.066,6.199,65.4,0,109.8,13.49,5.84,87.7
"2009-09-23 01:02:30",1264734,3.706,128.5,7.494,1.24,8.68,102.2447,5.028,6.382,65.61,0,109.8,13.5,5.80,90.5
"2009-09-23 01:03:00",1264735,3.851,130.9,8.36,1.271,8.88,102.2388,5.013,6.417,65.74,0,109.8,13.5,5.78,92.9
"2009-09-23 01:03:30",1264736,3.96,122.3,6.875,1.164,9.67,102.2388,5.013,6.408,65.88,0,109.8,13.5,5.78,84.3
"2009-09-23 01:04:00",1264737,2.888,120.4,7.796,1.227,7.809,102.2388,5.013,6.293,65.71,0,109.8,13.5,5.78,82.4
"2009-09-23 01:04:30",1264738,2.237,109.2,7.899,1.084,7.222,102.2326,4.997,6.211,65.55,0,109.8,13.5,5.77,71.2
"2009-09-23 01:05:00",1264739,1.623,96.2,4.952,0.136,5.87,102.2179,4.96,6.108,65.38,0,109.8,13.53,5.73,58.2
"2009-09-23 01:05:30",1264740,2.906,104.1,6.024,1.283,8.02,102.2057,4.929,6.212,65.5,0,109.8,13.5,5.70,66.1
"2009-09-23 01:06:00",1264741,2.106,98.9,5.499,1.157,7.416,102.206,4.929,6.203,65.51,0,109.8,13.5,5.70,60.9
"2009-09-23 01:06:30",1264742,3.109,98.9,8.55,1.24,7.99,102.2055,4.928,6.138,65.45,0,109.8,13.5,5.70,60.9
"2009-09-23 01:07:00",1264743,2.938,89.4,13.76,1.302,9.25,102.2063,4.93,6.325,65.65,0,109.8,13.5,5.70,51.4
"2009-09-23 01:07:30",1264744,2.813,65.22,10.25,1.271,8.42,102.2072,4.932,6.238,65.45,0,109.8,13.5,5.70,27.2
"2009-09-23 01:08:00",1264745,2.313,53.23,5.415,1.132,7.663,102.2084,4.935,6.173,65.34,0,109.8,13.5,5.70,15.2
"2009-09-23 01:08:30",1264746,1.203,37.2,4.869,0.157,5.711,102.2084,4.935,6.041,65.1,0,109.8,13.5,5.70,359.2
"2009-09-23 01:09:00",1264747,1.261,34.19,2.705,0.129,6.013,102.2121,4.945,6.143,65.16,0,109.8,13.54,5.71,356.2
"2009-09-23 01:09:30",1264748,2.701,35.16,9.24,1.228,8,102.2121,4.945,6.068,65.15,0,109.8,13.5,5.71,357.2
"2009-09-23 01:10:00",1264749,1.596,33.63,4.839,0.501,6.614,102.2127,4.946,6.178,65.32,0,109.8,13.54,5.72,355.6
"2009-09-23 01:10:30",1264750,1.232,25.43,3.532,0.147,6.429,102.2144,4.951,6.132,65.3,0,109.8,13.54,5.72,347.4
"2009-09-23 01:11:00",1264751,2.88,39.8,6.248,1.145,9.96,102.2138,4.949,6.26,65.44,0,109.8,13.5,5.72,1.8
"2009-09-23 01:11:30",1264752,2.309,45.38,6.862,1.228,8.54,102.2144,4.951,6.278,65.4,0,109.8,13.5,5.72,7.4
"2009-09-23 01:12:00",1264753,2.357,57.32,4.112,1.187,6.904,102.2153,4.953,6.037,65.23,0,109.8,13.5,5.72,19.3
"2009-09-23 01:12:30",1264754,1.674,58.81,3.837,0.182,5.199,102.2141,4.95,5.994,65.33,0,109.8,13.53,5.72,20.8
"2009-09-23 01:13:00",1264755,2.152,65.69,1.69,0.044,5.356,102.2153,4.953,6.062,65.43,0,109.8,13.54,5.72,27.7
"2009-09-23 01:13:30",1264756,3.402,76.35,4.935,1.271,8.03,102.2164,4.956,6.121,65.47,0,109.8,13.5,5.73,38.3
"2009-09-23 01:14:00",1264757,3.111,86.4,7.837,1.235,7.681,102.2173,4.958,6.224,65.63,0,109.8,13.5,5.73,48.4
"2009-09-23 01:14:30",1264758,4.443,88.9,6.364,1.065,9.92,102.2188,4.962,6.226,65.78,0,109.8,13.5,5.73,50.9
"2009-09-23 01:15:00",1264759,3.597,79.81,6.856,1.214,8.33,102.2188,4.962,6.207,65.72,0,109.8,13.5,5.73,41.8
"2009-09-23 01:15:30",1264760,3.49,76.47,6.033,1.172,7.791,102.2208,4.967,6.15,65.57,0,109.8,13.5,5.74,38.5
"2009-09-23 01:16:00",1264761,2.439,66.95,4.449,0.461,5.977,102.2219,4.97,6.029,65.32,0,109.8,13.54,5.74,28.9
"2009-09-23 01:16:30",1264762,3.628,67.39,9.99,1.138,7.397,102.2216,4.969,6.062,65.08,0,109.8,13.51,5.74,29.4
"2009-09-23 01:17:00",1264763,4.206,58.81,6.82,1.226,8.12,102.2208,4.967,6.196,64.98,0,109.8,13.51,5.74,20.8
"2009-09-23 01:17:30",1264764,3.862,52.62,6.726,1.362,7.921,102.2225,4.971,6.185,64.72,0,109.8,13.51,5.74,14.6
"2009-09-23 01:18:00",1264765,4.394,57.09,9.08,1.251,9.24,102.2219,4.97,6.254,64.59,0,109.8,13.51,5.74,19.1
"2009-09-23 01:18:30",1264766,4.285,60.14,5.255,1.229,9.33,102.2248,4.977,6.245,64.4,0,109.8,13.51,5.75,22.1
"2009-09-23 01:19:00",1264767,3.874,61.95,6.774,1.326,7.983,102.224,4.975,6.186,64.27,0,109.8,13.51,5.74,24.0
"2009-09-23 01:19:30",1264768,3.541,62.08,6.591,1.378,7.78,102.2242,4.976,6.164,64.23,0,109.8,13.51,5.75,24.1
"2009-09-23 01:20:00",1264769,3.281,50.82,5.023,0.911,6.464,102.2344,5.002,6.152,64.23,0,109.8,13.51,5.77,12.8
"2009-09-23 01:20:30",1264770,3.721,62.87,3.54,1.3,8.3,102.2506,5.043,6.192,64.21,0,109.8,13.51,5.81,24.9
"2009-09-23 01:21:00",1264771,4.109,67.34,9.05,1.271,9.64,102.2588,5.064,6.287,64.3,0,109.8,13.51,5.83,29.3
"2009-09-23 01:21:30",1264772,4.458,56.26,5.412,1.326,9.85,102.2582,5.062,6.315,64.37,0,109.8,13.51,5.83,18.3
"2009-09-23 01:22:00",1264773,4.238,59.18,12.1,1.398,9.26,102.259,5.065,6.308,64.37,0,109.8,13.51,5.83,21.2
"2009-09-23 01:22:30",1264774,3.137,60.4,6.366,1.134,6.394,102.2582,5.062,6.09,64.27,0,109.8,13.51,5.83,22.4
"2009-09-23 01:23:00",1264775,3.013,60.1,7.154,1.055,6.632,102.2602,5.068,6.117,64.38,0,109.8,13.51,5.84,22.1
"2009-09-23 01:23:30",1264776,3.829,69.21,7.584,1.137,7.844,102.2604,5.068,6.238,64.63,0,109.8,13.51,5.84,31.2
"2009-09-23 01:24:00",1264777,3.621,64.7,13.02,1.492,7.853,102.2678,5.087,6.265,64.82,0,109.8,13.51,5.86,26.7
"2009-09-23 01:24:30",1264778,3.942,62.93,8.71,1.248,8.66,102.2772,5.111,6.297,64.73,0,109.8,13.51,5.88,24.9
"2009-09-23 01:25:00",1264779,4.021,61.37,8.74,1.203,8.23,102.2749,5.105,6.347,64.58,0,109.8,13.51,5.88,23.4
"2009-09-23 01:25:30",1264780,3.756,51.47,7.523,1.08,7.589,102.2831,5.126,6.31,64.4,0,109.8,13.51,5.90,13.5
"2009-09-23 01:26:00",1264781,4.908,57.85,8.24,1.037,9.08,102.2859,5.133,6.238,64.22,0,109.8,13.51,5.90,19.8
"2009-09-23 01:26:30",1264782,3.558,44.36,6.389,1.129,7.208,102.293,5.151,6.305,64.37,0,109.8,13.51,5.92,6.4
"2009-09-23 01:27:00",1264783,3.057,34.63,9.21,1.578,7.201,102.295,5.157,6.184,64.28,0,109.8,13.5,5.93,356.6
"2009-09-23 01:27:30",1264784,3.791,40.41,6.959,1.172,7.299,102.2944,5.155,6.217,64.25,0,109.8,13.5,5.93,2.4
"2009-09-23 01:28:00",1264785,4.078,41.6,7.748,1.361,8.74,102.2944,5.155,6.391,64.53,0,109.8,13.5,5.93,3.6
"2009-09-23 01:28:30",1264786,4.643,41.46,6.483,1.186,9.8,102.2959,5.159,6.373,64.44,0,109.8,13.5,5.93,3.5
"2009-09-23 01:29:00",1264787,4.659,45,7.797,1.305,8.12,102.2961,5.159,6.284,64.31,0,109.8,13.5,5.93,7.0
"2009-09-23 01:29:30",1264788,3.909,43.9,7.176,1.413,8.11,102.2961,5.159,6.27,64.52,0,109.8,13.5,5.93,5.9
"2009-09-23 01:30:00",1264789,3.548,44.49,7.282,1.266,8.08,102.2941,5.154,6.333,64.79,0,109.8,13.5,5.92,6.5
"2009-09-23 01:30:30",1264790,2.645,33.99,7.184,1.298,7.092,102.2947,5.156,6.18,64.76,0,109.8,13.5,5.93,356.0
"2009-09-23 01:31:00",1264791,2.818,35.14,8.13,1.373,7.741,102.2944,5.155,6.316,64.85,0,109.8,13.5,5.93,357.1
"2009-09-23 01:31:30",1264792,3.188,38.51,6.569,1.254,8.26,102.2961,5.159,6.284,64.89,0,109.8,13.51,5.93,0.5
"2009-09-23 01:32:00",1264793,3.365,40.44,6.485,1.318,8.53,102.297,5.162,6.392,65.1,0,109.8,13.51,5.93,2.4
"2009-09-23 01:32:30",1264794,2.762,37.08,5.846,1.213,8.29,102.2976,5.163,6.352,65.14,0,109.8,13.51,5.93,359.1
"2009-09-23 01:33:00",1264795,1.92,32.21,5.199,0.534,5.551,102.2982,5.165,6.276,65.12,0,109.8,13.51,5.93,354.2
"2009-09-23 01:33:30",1264796,3.07,30.2,9.15,1.255,8.03,102.2982,5.165,6.243,64.9,0,109.8,13.51,5.93,352.2
"2009-09-23 01:34:00",1264797,2.868,13.87,6.913,1.21,8.21,102.299,5.167,6.284,64.55,0,109.8,13.51,5.94,335.9
"2009-09-23 01:34:30",1264798,2.508,26.5,12.59,1.269,7.53,102.297,5.162,6.324,64.32,0,109.8,13.51,5.93,348.5
"2009-09-23 01:35:00",1264799,1.74,19.25,5.248,0.248,5.885,102.2959,5.159,6.235,64.3,0,109.8,13.55,5.93,341.2
"2009-09-23 01:35:30",1264800,3.206,17.04,11.73,1.169,9.46,102.299,5.167,6.423,64.61,0,109.8,13.51,5.94,339.0
"2009-09-23 01:36:00",1264801,2.946,7.225,8.88,1.351,8.5,102.2962,5.16,6.332,64.53,0,109.8,13.51,5.93,329.2
"2009-09-23 01:36:30",1264802,1.176,6.658,12.28,0.764,5.791,102.2968,5.161,6.221,64.53,0,109.8,13.51,5.93,328.7
"2009-09-23 01:37:00",1264803,2.004,14.31,9.02,1.268,7.616,102.2985,5.165,6.351,64.85,0,109.8,13.51,5.94,336.3
"2009-09-23 01:37:30",1264804,1.801,9.53,14.32,1.565,7.978,102.2931,5.152,6.414,65.25,0,109.8,13.51,5.92,331.5
"2009-09-23 01:38:00",1264805,2.428,343.6,17.39,1.058,6.643,102.2942,5.155,6.205,65.31,0,109.8,13.51,5.92,305.6
"2009-09-23 01:38:30",1264806,1.759,328.8,5.811,0.65,5.174,102.2934,5.152,6.265,65.53,0,109.8,13.51,5.92,290.8
"2009-09-23 01:39:00",1264807,2.325,333.4,9.72,1.34,7.403,102.2911,5.147,6.244,65.63,0,109.9,13.51,5.92,295.4
"2009-09-23 01:39:30",1264808,2.123,349.6,11.41,1.024,6.931,102.2877,5.138,6.393,65.95,0,109.8,13.51,5.91,311.6
"2009-09-23 01:40:00",1264809,3.131,0.705,8.83,1.152,7.345,102.2869,5.136,6.178,65.82,0,109.8,13.51,5.91,322.7
"2009-09-23 01:40:30",1264810,2.813,349.4,5.258,1.204,6.369,102.2858,5.133,6.266,65.85,0,109.8,13.51,5.90,311.4
"2009-09-23 01:41:00",1264811,3.945,348.3,6.92,1.212,9.09,102.2784,5.114,6.429,65.99,0,109.8,13.51,5.88,310.3
"2009-09-23 01:41:30",1264812,4.074,355,8,1.227,9,102.27,5.093,6.333,65.98,0,109.8,13.51,5.86,317.0
"2009-09-23 01:42:00",1264813,2.584,341.7,6.716,0.737,6.484,102.2689,5.09,6.316,65.79,0,109.8,13.51,5.86,303.7
"2009-09-23 01:42:30",1264814,2.252,347.7,7.05,1.256,6.417,102.2689,5.09,6.2,65.62,0,109.8,13.51,5.86,309.7
"2009-09-23 01:43:00",1264815,2.865,347.7,10.54,1.278,6.655,102.2694,5.091,6.206,65.71,0,109.8,13.51,5.86,309.7
"2009-09-23 01:43:30",1264816,2.743,345.1,11.06,1.279,7.263,102.2709,5.095,6.316,65.92,0,109.8,13.51,5.86,307.1
"2009-09-23 01:44:00",1264817,1.47,331.8,5.898,0.722,5.322,102.2706,5.094,6.184,65.88,0,109.8,13.51,5.86,293.8
"2009-09-23 01:44:30",1264818,2.456,342.9,11.31,1.311,8.35,102.2694,5.091,6.424,66.21,0,109.8,13.51,5.86,304.9
"2009-09-23 01:45:00",1264819,2.48,329.9,9.19,1.213,7.769,102.2684,5.089,6.307,66.23,0,109.8,13.51,5.86,291.9
"2009-09-23 01:45:30",1264820,2.227,313.9,12.22,1.198,6.688,102.2474,5.035,6.187,66.66,0,109.8,13.51,5.80,275.9
"2009-09-23 01:46:00",1264821,1.607,294.2,6.596,0.756,5.642,102.239,5.013,6.264,67.07,0,109.8,13.51,5.78,256.2
"2009-09-23 01:46:30",1264822,1.46,284,6.578,0.469,4.532,102.2381,5.011,6.1,67.23,0,109.8,13.51,5.78,246.0
"2009-09-23 01:47:00",1264823,1.953,251,24.2,1.413,5.863,102.2124,4.946,6.212,67.75,0,109.8,13.51,5.71,213.0
"2009-09-23 01:47:30",1264824,2.931,239.6,29.58,1.56,6.906,102.1855,4.877,6.069,68.65,0,109.8,13.51,5.65,201.6
"2009-09-23 01:48:00",1264825,3.887,209.8,21.39,1.474,8.08,102.1298,4.735,6.168,70.44,0,109.8,13.51,5.50,171.8
"2009-09-23 01:48:30",1264826,4.133,204.2,8.43,1.192,8.38,102.0566,4.548,6.097,72.36,0,109.8,13.52,5.32,166.2
"2009-09-23 01:49:00",1264827,3.092,197.6,9.34,0.932,6.346,101.9981,4.398,5.882,73.28,0,109.8,13.52,5.17,159.6